STARLINK-33931, 64006

Orbit data source: Space-Track

STARLINK-33931, 64006 is a payload satellite owned by SpaceX/Seattle (US) in LEO that was launched on Wed, 14 May 2025 UTC via an FALCON 9 launch vehicle from the Air Force Eastern Test Range (AFETR). Payload-class satellites include a variety of spacecraft equipped with specific instruments for various scientific and technological missions. These include communications satellites like Starlink; space stations such as the ISS; scientific satellites like the Hubble; Earth observation satellites from companies like Planet Labs, Umbra, and HawkEye 360; GPS; miniature CubeSats for education and research; and military/defense satellites.

Loading next visibility...
Identifier
64006, 2025-101N
Orbit
LEO
Country
Flag of USUS
Related business
Manufacturer
SpaceX/Seattle
Mission
Operational Commercial Communications
Bus & Motor
STARLINK V2MO, Unknown motor
Mass
575 kg wet, ~530 kg dry
Launch date (UTC)
2025-05-14 (1 year ago)
Launch vehicle
FALCON 9
Launch site
Air Force Eastern Test Range (AFETR)
Object type
Payload
Rocket body
Debris
Shape & HBR
Box + 2 Pan, 17.7 m
Radar Cross Section
36.964 m², Large (>1 m²)

Expand to show TLE details & history
Last TLE update: 14 hours ago

TLE from 14 hours ago
0 STARLINK-33931
1 64006U 25101N   26171.24340644  .00012386  00000-0  45862-3 0  9997
2 64006  43.0012 138.4327 0001754 271.8007  88.2643 15.27596756 62763
Epoch: 2026-06-20T05:50Z
TLE epoch observation values (Epoch: 2026-06-20T05:50:30.316Z)
Latitude
-0.00007°
Longitude
142.34549°
Altitude
482.738 km
Speed
7.626 km/s
True Right ascension
09h 13m 43s
True Declination
0° 00' 00"
Sunlit
Object was in daylight at epoch
Visualization orbit readout
Latitude
Unknown
Longitude
Unknown
Altitude
Unknown
Speed
Unknown
Apparent Right ascension
Unknown
Apparent Declination
Unknown
Sunlit
N/A
Visualization observer readout
Local Sidereal Time
07:12:20
Azimuth
Unknown
Elevation
Unknown
Doppler factor
Unknown
Orbital elements
Apogee altitude
486.148 km
Perigee altitude
483.74 km
Semi-major axis
6,863.081 km
Eccentricity
0.00018
Inclination
43.0012°
RAAN
138.4327°
Arg. of periapsis
271.8007°
True anomaly
88.28439°
Mean anomaly
88.2643°
Eccentric anomaly
88.27435°
Mean motion
3.81737 °/min
Orbital period
94.31 mins
BSTAR
0.00045862
Loading maneuver chart data...
Computing Atmospheric mass density...
Loading historical data...
Loading historical data...
Loading historical data...
Loading historical data...
Loading historical data...
Loading historical data...
Loading historical data...

Documentation

Showing up to 5 results
|